Year,Month,Day,Hour,Minute,Value (Times are PST for temperature in C)
2017,07,03,13,00,16.10
2017,07,03,13,01,16.20
2017,07,03,13,02,16.10
2017,07,03,13,03,16.00
2017,07,03,13,04,16.00
2017,07,03,13,05,16.00
2017,07,03,13,06,16.00
2017,07,03,13,07,16.10
2017,07,03,13,08,16.10
2017,07,03,13,09,16.10
2017,07,03,13,10,16.20
2017,07,03,13,11,16.30
2017,07,03,13,12,16.30
2017,07,03,13,13,16.30
2017,07,03,13,14,16.40
2017,07,03,13,15,16.40
2017,07,03,13,16,16.30
2017,07,03,13,17,16.30
2017,07,03,13,18,16.20
2017,07,03,13,19,16.10
2017,07,03,13,20,16.10
2017,07,03,13,21,16.20
2017,07,03,13,22,16.20
2017,07,03,13,23,16.20
2017,07,03,13,24,16.20
2017,07,03,13,25,16.20
2017,07,03,13,26,16.20
2017,07,03,13,27,16.20
2017,07,03,13,28,16.30
2017,07,03,13,29,16.30
2017,07,03,13,30,16.30
2017,07,03,13,31,16.40
2017,07,03,13,32,16.50
2017,07,03,13,33,16.60
2017,07,03,13,34,16.60
2017,07,03,13,35,16.70
2017,07,03,13,36,16.60
2017,07,03,13,37,16.60
2017,07,03,13,38,16.60
2017,07,03,13,39,16.60
2017,07,03,13,40,16.70
2017,07,03,13,41,16.80
2017,07,03,13,42,16.80
2017,07,03,13,43,16.90
2017,07,03,13,44,16.90
2017,07,03,13,45,16.90
2017,07,03,13,46,17.00
2017,07,03,13,47,17.00
2017,07,03,13,48,17.10
2017,07,03,13,49,17.10
2017,07,03,13,50,17.10
2017,07,03,13,51,17.10
2017,07,03,13,52,17.20
2017,07,03,13,53,17.20
2017,07,03,13,54,17.30
2017,07,03,13,55,17.30
2017,07,03,13,56,17.40
2017,07,03,13,57,17.40
2017,07,03,13,58,17.40
2017,07,03,13,59,17.30
2017,07,03,14,00,17.30
2017,07,03,14,01,17.20
2017,07,03,14,02,17.20
2017,07,03,14,03,17.20
2017,07,03,14,04,17.20
2017,07,03,14,05,17.20
2017,07,03,14,06,17.20
2017,07,03,14,07,17.10
2017,07,03,14,08,17.10
2017,07,03,14,09,17.10
2017,07,03,14,10,17.20
2017,07,03,14,11,17.20
2017,07,03,14,12,17.30
2017,07,03,14,13,17.40
2017,07,03,14,14,17.40
2017,07,03,14,15,17.40
2017,07,03,14,16,17.30
2017,07,03,14,17,17.10
2017,07,03,14,18,16.90
2017,07,03,14,19,16.80
2017,07,03,14,20,16.70
2017,07,03,14,21,16.70
2017,07,03,14,22,16.70
2017,07,03,14,23,16.70
2017,07,03,14,24,16.70
2017,07,03,14,25,16.70
2017,07,03,14,26,16.70
2017,07,03,14,27,16.60
2017,07,03,14,28,16.70
2017,07,03,14,29,16.70
2017,07,03,14,30,16.70
2017,07,03,14,31,16.70
2017,07,03,14,32,16.80
2017,07,03,14,33,16.80
2017,07,03,14,34,16.80
2017,07,03,14,35,16.70
2017,07,03,14,36,16.70
2017,07,03,14,37,16.70
2017,07,03,14,38,16.70
2017,07,03,14,39,16.70
2017,07,03,14,40,16.70
2017,07,03,14,41,16.70
2017,07,03,14,42,16.80
2017,07,03,14,43,16.90
2017,07,03,14,44,17.10
2017,07,03,14,45,17.20
2017,07,03,14,46,17.20
2017,07,03,14,47,17.20
2017,07,03,14,48,17.20
2017,07,03,14,49,17.20
2017,07,03,14,50,17.20
2017,07,03,14,51,17.30
2017,07,03,14,52,17.30
2017,07,03,14,53,17.30
2017,07,03,14,54,17.20
2017,07,03,14,55,17.20
2017,07,03,14,56,17.10
2017,07,03,14,57,17.00
2017,07,03,14,58,17.00
2017,07,03,14,59,17.00
2017,07,03,15,00,17.00
2017,07,03,15,01,17.10
2017,07,03,15,02,17.10
2017,07,03,15,03,17.10
2017,07,03,15,04,17.10
2017,07,03,15,05,17.10
2017,07,03,15,06,17.20
2017,07,03,15,07,17.20
2017,07,03,15,08,17.30
2017,07,03,15,09,17.40
2017,07,03,15,10,17.60
2017,07,03,15,11,17.60
2017,07,03,15,12,17.70
2017,07,03,15,13,17.70
2017,07,03,15,14,17.70
2017,07,03,15,15,17.70
2017,07,03,15,16,17.70
2017,07,03,15,17,17.80
2017,07,03,15,18,17.80
2017,07,03,15,19,17.80
2017,07,03,15,20,17.80
2017,07,03,15,21,17.70
2017,07,03,15,22,17.70
2017,07,03,15,23,17.70
2017,07,03,15,24,17.70
2017,07,03,15,25,17.70
2017,07,03,15,26,17.80
2017,07,03,15,27,17.80
2017,07,03,15,28,17.70
2017,07,03,15,29,17.70
2017,07,03,15,30,17.60
2017,07,03,15,31,17.50
2017,07,03,15,32,17.40
2017,07,03,15,33,17.30
2017,07,03,15,34,17.20
2017,07,03,15,35,17.10
2017,07,03,15,36,17.00
2017,07,03,15,37,16.90
2017,07,03,15,38,16.80
2017,07,03,15,39,16.80
2017,07,03,15,40,16.80
2017,07,03,15,41,16.80
2017,07,03,15,42,16.80
2017,07,03,15,43,16.80
2017,07,03,15,44,16.70
2017,07,03,15,45,16.70
2017,07,03,15,46,16.70
2017,07,03,15,47,16.60
2017,07,03,15,48,16.60
2017,07,03,15,49,16.60
2017,07,03,15,50,16.60
2017,07,03,15,51,16.60
2017,07,03,15,52,16.60
2017,07,03,15,53,16.70
2017,07,03,15,54,16.70
2017,07,03,15,55,16.80
2017,07,03,15,56,16.90
2017,07,03,15,57,16.90
2017,07,03,15,58,16.90
2017,07,03,15,59,17.00
2017,07,03,16,00,17.00
2017,07,03,16,01,17.10
2017,07,03,16,02,17.20
2017,07,03,16,03,17.30
2017,07,03,16,04,17.30
2017,07,03,16,05,17.40
2017,07,03,16,06,17.50
2017,07,03,16,07,17.60
2017,07,03,16,08,17.60
2017,07,03,16,09,17.60
2017,07,03,16,10,17.50
2017,07,03,16,11,17.50
2017,07,03,16,12,17.50
2017,07,03,16,13,17.60
2017,07,03,16,14,17.60
2017,07,03,16,15,17.50
2017,07,03,16,16,17.50
2017,07,03,16,17,17.40
2017,07,03,16,18,17.30
2017,07,03,16,19,17.30
2017,07,03,16,20,17.30
2017,07,03,16,21,17.30
2017,07,03,16,22,17.30
2017,07,03,16,23,17.30
2017,07,03,16,24,17.30
2017,07,03,16,25,17.30
2017,07,03,16,26,17.30
2017,07,03,16,27,17.40
2017,07,03,16,28,17.40
2017,07,03,16,29,17.40
2017,07,03,16,30,17.50
2017,07,03,16,31,17.50
2017,07,03,16,32,17.60
2017,07,03,16,33,17.50
2017,07,03,16,34,17.50
2017,07,03,16,35,17.50
2017,07,03,16,36,17.40
2017,07,03,16,37,17.40
2017,07,03,16,38,17.30
2017,07,03,16,39,17.30
2017,07,03,16,40,17.30
2017,07,03,16,41,17.30
2017,07,03,16,42,17.40
2017,07,03,16,43,17.50
2017,07,03,16,44,17.70
2017,07,03,16,45,17.80
2017,07,03,16,46,17.80
2017,07,03,16,47,17.80
2017,07,03,16,48,17.90
2017,07,03,16,49,18.00
2017,07,03,16,50,18.10
2017,07,03,16,51,18.10
2017,07,03,16,52,18.30
2017,07,03,16,53,18.40
2017,07,03,16,54,18.40
2017,07,03,16,55,18.40
2017,07,03,16,56,18.40
2017,07,03,16,57,18.40
2017,07,03,16,58,18.40
2017,07,03,16,59,18.40
2017,07,03,17,00,18.50
2017,07,03,17,01,18.60
2017,07,03,17,02,18.60
2017,07,03,17,03,18.60
2017,07,03,17,04,18.50
2017,07,03,17,05,18.50
2017,07,03,17,06,18.40
2017,07,03,17,07,18.40
2017,07,03,17,08,18.30
2017,07,03,17,09,18.30
2017,07,03,17,10,18.30
2017,07,03,17,11,18.30
2017,07,03,17,12,18.30
2017,07,03,17,13,18.30
2017,07,03,17,14,18.30
2017,07,03,17,15,18.30
2017,07,03,17,16,18.40
2017,07,03,17,17,18.50
2017,07,03,17,18,18.60
2017,07,03,17,19,18.50
2017,07,03,17,20,18.40
2017,07,03,17,21,18.40
2017,07,03,17,22,18.40
2017,07,03,17,23,18.30
2017,07,03,17,24,18.30
2017,07,03,17,25,18.40
2017,07,03,17,26,18.40
2017,07,03,17,27,18.40
2017,07,03,17,28,18.40
2017,07,03,17,29,18.40
2017,07,03,17,30,18.40
2017,07,03,17,31,18.30
2017,07,03,17,32,18.30
2017,07,03,17,33,18.30
2017,07,03,17,34,18.30
2017,07,03,17,35,18.30
2017,07,03,17,36,18.30
2017,07,03,17,37,18.40
2017,07,03,17,38,18.40
2017,07,03,17,39,18.50
2017,07,03,17,40,18.50
2017,07,03,17,41,18.50
2017,07,03,17,42,18.50
2017,07,03,17,43,18.50
2017,07,03,17,44,18.50
2017,07,03,17,45,18.60
2017,07,03,17,46,18.70
2017,07,03,17,47,18.80
2017,07,03,17,48,18.90
2017,07,03,17,49,18.90
2017,07,03,17,50,18.90
2017,07,03,17,51,18.90
2017,07,03,17,52,18.90
2017,07,03,17,53,18.90
2017,07,03,17,54,18.80
2017,07,03,17,55,18.60
2017,07,03,17,56,18.50
2017,07,03,17,57,18.40
2017,07,03,17,58,18.40
2017,07,03,17,59,18.40
2017,07,03,18,00,18.30
2017,07,03,18,01,18.30
2017,07,03,18,02,18.30
2017,07,03,18,03,18.30
2017,07,03,18,04,18.30
2017,07,03,18,05,18.30
2017,07,03,18,06,18.20
2017,07,03,18,07,18.20
2017,07,03,18,08,18.20
2017,07,03,18,09,18.10
2017,07,03,18,10,18.10
2017,07,03,18,11,18.10
2017,07,03,18,12,18.00
2017,07,03,18,13,17.90
2017,07,03,18,14,17.90
2017,07,03,18,15,17.80
2017,07,03,18,16,17.80
2017,07,03,18,17,17.70
2017,07,03,18,18,17.70
2017,07,03,18,19,17.60
2017,07,03,18,20,17.50
2017,07,03,18,21,17.30
2017,07,03,18,22,17.20
2017,07,03,18,23,17.10
2017,07,03,18,24,17.10
2017,07,03,18,25,17.00
2017,07,03,18,26,16.90
2017,07,03,18,27,16.90
2017,07,03,18,28,16.80
2017,07,03,18,29,16.80
2017,07,03,18,30,16.70
2017,07,03,18,31,16.70
2017,07,03,18,32,16.80
2017,07,03,18,33,16.70
2017,07,03,18,34,16.70
2017,07,03,18,35,16.70
2017,07,03,18,36,16.60
2017,07,03,18,37,16.50
2017,07,03,18,38,16.50
2017,07,03,18,39,16.40
2017,07,03,18,40,16.40
2017,07,03,18,41,16.30
2017,07,03,18,42,16.30
2017,07,03,18,43,16.30
2017,07,03,18,44,16.30
2017,07,03,18,45,16.30
2017,07,03,18,46,16.30
2017,07,03,18,47,16.30
2017,07,03,18,48,16.30
2017,07,03,18,49,16.30
2017,07,03,18,50,16.30
2017,07,03,18,51,16.30
2017,07,03,18,52,16.30
2017,07,03,18,53,16.30
2017,07,03,18,54,16.20
2017,07,03,18,55,16.20
2017,07,03,18,56,16.20
2017,07,03,18,57,16.20
2017,07,03,18,58,16.20
2017,07,03,18,59,16.30
2017,07,03,19,00,16.40
2017,07,03,19,01,16.40
2017,07,03,19,02,16.50
2017,07,03,19,03,16.60
2017,07,03,19,04,16.60
2017,07,03,19,05,16.70
2017,07,03,19,06,16.70
2017,07,03,19,07,16.70
2017,07,03,19,08,16.80
2017,07,03,19,09,16.80
2017,07,03,19,10,16.90
2017,07,03,19,11,16.90
2017,07,03,19,12,17.00
2017,07,03,19,13,16.90
2017,07,03,19,14,16.90
2017,07,03,19,15,16.90
2017,07,03,19,16,16.80
2017,07,03,19,17,16.80
2017,07,03,19,18,16.90
2017,07,03,19,19,16.90
2017,07,03,19,20,16.90
2017,07,03,19,21,16.90
2017,07,03,19,22,16.90
2017,07,03,19,23,16.90
2017,07,03,19,24,16.90
2017,07,03,19,25,16.90
2017,07,03,19,26,16.90
2017,07,03,19,27,16.90
2017,07,03,19,28,16.90
2017,07,03,19,29,16.90
2017,07,03,19,30,16.90
2017,07,03,19,31,16.90
2017,07,03,19,32,16.90
2017,07,03,19,33,16.90
2017,07,03,19,34,16.80
2017,07,03,19,35,16.80
2017,07,03,19,36,16.80
2017,07,03,19,37,16.80
2017,07,03,19,38,16.80
2017,07,03,19,39,16.80
2017,07,03,19,40,16.80
2017,07,03,19,41,16.80
2017,07,03,19,42,16.80
2017,07,03,19,43,16.80
2017,07,03,19,44,16.80
2017,07,03,19,45,16.80
2017,07,03,19,46,16.80
2017,07,03,19,47,16.80
2017,07,03,19,48,16.80
2017,07,03,19,49,16.80
2017,07,03,19,50,16.80
2017,07,03,19,51,16.80
2017,07,03,19,52,16.80
2017,07,03,19,53,16.80
2017,07,03,19,54,16.80
2017,07,03,19,55,16.80
2017,07,03,19,56,16.90
2017,07,03,19,57,16.90
2017,07,03,19,58,16.80
2017,07,03,19,59,16.80
2017,07,03,20,00,16.80
2017,07,03,20,01,16.70
2017,07,03,20,02,16.70
2017,07,03,20,03,16.70
2017,07,03,20,04,16.70
2017,07,03,20,05,16.60
2017,07,03,20,06,16.60
2017,07,03,20,07,16.60
2017,07,03,20,08,16.50
2017,07,03,20,09,16.50
2017,07,03,20,10,16.50
2017,07,03,20,11,16.40
2017,07,03,20,12,16.50
2017,07,03,20,13,16.50
2017,07,03,20,14,16.50
2017,07,03,20,15,16.50
2017,07,03,20,16,16.40
2017,07,03,20,17,16.40
2017,07,03,20,18,16.40
2017,07,03,20,19,16.40
2017,07,03,20,20,16.40
2017,07,03,20,21,16.30
2017,07,03,20,22,16.30
2017,07,03,20,23,16.30
2017,07,03,20,24,16.30
2017,07,03,20,25,16.30
2017,07,03,20,26,16.30
2017,07,03,20,27,16.30
2017,07,03,20,28,16.30
2017,07,03,20,29,16.20
2017,07,03,20,30,16.20
2017,07,03,20,31,16.20
2017,07,03,20,32,16.10
2017,07,03,20,33,16.10
2017,07,03,20,34,16.10
2017,07,03,20,35,16.10
2017,07,03,20,36,16.10
2017,07,03,20,37,16.00
2017,07,03,20,38,16.00
2017,07,03,20,39,16.00
2017,07,03,20,40,15.90
2017,07,03,20,41,15.90
2017,07,03,20,42,15.90
2017,07,03,20,43,15.90
2017,07,03,20,44,15.80
2017,07,03,20,45,15.80
2017,07,03,20,46,15.80
2017,07,03,20,47,15.80
2017,07,03,20,48,15.70
2017,07,03,20,49,15.70
2017,07,03,20,50,15.70
2017,07,03,20,51,15.70
2017,07,03,20,52,15.60
2017,07,03,20,53,15.60
2017,07,03,20,54,15.50
2017,07,03,20,55,15.40
2017,07,03,20,56,15.30
2017,07,03,20,57,15.30
2017,07,03,20,58,15.20
2017,07,03,20,59,15.10
2017,07,03,21,00,15.00
2017,07,03,21,01,15.00
2017,07,03,21,02,14.90
2017,07,03,21,03,14.90
2017,07,03,21,04,14.90
2017,07,03,21,05,14.80
2017,07,03,21,06,14.80
2017,07,03,21,07,14.80
2017,07,03,21,08,14.80
2017,07,03,21,09,14.80
2017,07,03,21,10,14.70
2017,07,03,21,11,14.70
2017,07,03,21,12,14.70
2017,07,03,21,13,14.60
2017,07,03,21,14,14.60
2017,07,03,21,15,14.60
2017,07,03,21,16,14.60
2017,07,03,21,17,14.50
2017,07,03,21,18,14.50
2017,07,03,21,19,14.50
2017,07,03,21,20,14.50
2017,07,03,21,21,14.50
2017,07,03,21,22,14.50
2017,07,03,21,23,14.50
2017,07,03,21,24,14.50
2017,07,03,21,25,14.50
2017,07,03,21,26,14.50
2017,07,03,21,27,14.50
